Indianapolis, IN

1:54 AM EST on November 14, 2019 (GMT -0500)
Indianapolis International

Weather History for KIND - May, 2019

Change the Weather History Date:

Monday, May 20, 2019

  Actual Average Record
Temperature  
Mean Temperature 56 °F 64 °F  
Max Temperature 63 °F 74 °F 90 °F (1977)
Min Temperature 48 °F 54 °F 38 °F (1894)
Degree Days  
Heating Degree Days 9 4  
Month to date heating degree days 113 111  
Since 1 July heating degree days 5364 5333  
Cooling Degree Days 0 3  
Month to date cooling degree days 24 31  
Year to date cooling degree days 25 46  
Growing Degree Days 5 (Base 50)    
Moisture  
Dew Point 47 °F    
Average Humidity 79    
Maximum Humidity 97    
Minimum Humidity 60    
Precipitation  
Precipitation 0.00 in 0.16 in 1.68 in (1984)
Month to date precipitation 2.58 3.28  
Year to date precipitation 20.06 15.63  
Snow  
Snow 0.00 in 0.00 in T in (1894)
Month to date snowfall 0.0 0.0  
Since 1 July snowfall 19.4 25.9  
Snow Depth 0.00 in    
Sea Level Pressure  
Sea Level Pressure 30.02 in    
Wind  
Wind Speed 12 mph (WNW)    
Max Wind Speed 20 mph    
Max Gust Speed 26 mph    
Visibility 10 miles    
Events      
T = Trace of Precipitation, MM = Missing Value Source: NWS Daily Summary

Daily Weather History Graph

Daily Weather History Graph

Search for Another Location

Airport or City:

Astronomy

May. 20, 2019 Rise Set
Actual Time 6:26 AM EDT 8:57 PM EDT
Civil Twilight 5:55 AM EDT 9:28 PM EDT
Nautical Twilight 5:17 AM EDT 10:06 PM EDT
Astronomical Twilight 4:34 AM EDT 10:49 PM EDT
Moon 10:57 PM EDT (5/20) 7:54 AM EDT (5/20)
Length of Visible Light 15h 32m
Length of Day
14h 30m
Waning Gibbous, 96% of the Moon is Illuminated
May 20
Waning Gibbous
May 26
Last Quarter
Jun 3
New
Jun 10
First Quarter
Jun 17
Full

Hourly Weather History & Observations

Time (EDT) Temp. Dew Point Humidity Pressure Visibility Wind Dir Wind Speed Gust Speed Precip Events Conditions
12:54 AM 61.0 °F 59.0 °F 93% 29.86 in 10.0 mi WSW 10.4 mph - N/A   Partly Cloudy
1:54 AM 61.0 °F 54.0 °F 78% 29.88 in 10.0 mi WNW 15.0 mph 23.0 mph N/A   Mostly Cloudy
2:54 AM 59.0 °F 50.0 °F 72% 29.89 in 10.0 mi West 12.7 mph - N/A   Partly Cloudy
3:54 AM 57.0 °F 50.0 °F 77% 29.90 in 10.0 mi West 10.4 mph - N/A   Partly Cloudy
4:54 AM 55.9 °F 50.0 °F 80% 29.92 in 10.0 mi West 12.7 mph - N/A   Partly Cloudy
5:54 AM 54.0 °F 50.0 °F 86% 29.94 in 10.0 mi West 9.2 mph - N/A   Mostly Cloudy
6:54 AM 53.1 °F 48.9 °F 86% 29.96 in 10.0 mi WSW 9.2 mph - N/A   Scattered Clouds
7:54 AM 55.9 °F 48.0 °F 75% 29.99 in 10.0 mi West 12.7 mph 20.7 mph N/A   Scattered Clouds
8:54 AM 57.0 °F 46.9 °F 69% 30.00 in 10.0 mi West 18.4 mph 25.3 mph N/A   Scattered Clouds
9:54 AM 57.9 °F 46.9 °F 67% 30.01 in 10.0 mi West 10.4 mph - N/A   Mostly Cloudy
10:54 AM 59.0 °F 46.9 °F 64% 30.02 in 10.0 mi WNW 11.5 mph - N/A   Mostly Cloudy
11:54 AM 59.0 °F 48.0 °F 67% 30.04 in 10.0 mi West 11.5 mph - N/A   Overcast
12:54 PM 59.0 °F 48.0 °F 67% 30.06 in 10.0 mi WNW 15.0 mph - N/A   Overcast
1:54 PM 60.1 °F 46.9 °F 62% 30.06 in 10.0 mi West 16.1 mph - N/A   Overcast
2:54 PM 59.0 °F 46.0 °F 62% 30.06 in 10.0 mi West 13.8 mph - N/A   Overcast
3:16 PM 57.9 °F 48.0 °F 70% 30.06 in 10.0 mi NNW 11.5 mph - N/A   Overcast
3:54 PM 57.0 °F 48.0 °F 72% 30.08 in 10.0 mi WNW 13.8 mph - N/A   Overcast
4:54 PM 57.9 °F 48.0 °F 70% 30.08 in 10.0 mi NNW 12.7 mph - N/A   Overcast
5:54 PM 57.0 °F 46.9 °F 69% 30.10 in 10.0 mi NW 11.5 mph - N/A   Overcast
6:54 PM 55.9 °F 45.0 °F 67% 30.10 in 10.0 mi North 11.5 mph - N/A   Overcast
7:54 PM 55.9 °F 44.1 °F 64% 30.10 in 10.0 mi NNW 10.4 mph - N/A   Overcast
8:54 PM 54.0 °F 44.1 °F 69% 30.08 in 10.0 mi North 10.4 mph - N/A   Mostly Cloudy
9:54 PM 52.0 °F 42.1 °F 69% 30.09 in 10.0 mi North 11.5 mph - N/A   Mostly Cloudy
10:54 PM 50.0 °F 39.9 °F 68% 30.12 in 10.0 mi North 11.5 mph - N/A   Overcast
11:54 PM 48.9 °F 39.9 °F 71% 30.11 in 10.0 mi NNE 10.4 mph - N/A   Mostly Cloudy